| time (UTC) | temp F | wind direction | speed MPH | gust MPH | rain 1hr in | rain 24hr in | rain mn in | humidity % | barometer mb |
| 20260506110834 | 70 | 132 | 1.0 | 6.0 | 0.00 | 0.00 | 0.00 | 95 | 1016.4 |
| 20260506105733 | 69 | 148 | 1.0 | 4.0 | 0.00 | 0.00 | 0.00 | 95 | 1016.2 |
| 20260506105203 | 69 | 132 | 1.0 | 4.0 | 0.00 | 0.00 | 0.00 | 95 | 1016.1 |
| 20260506104703 | 69 | 111 | 1.0 | 4.0 | 0.00 | 0.00 | 0.00 | 95 | 1016.0 |
| 20260506104133 | 69 | 107 | 2.0 | 4.0 | 0.00 | 0.00 | 0.00 | 95 | 1016.1 |
| 20260506103633 | 69 | 105 | 2.0 | 4.0 | 0.00 | 0.00 | 0.00 | 94 | 1016.0 |
| 20260506103133 | 69 | 102 | 2.0 | 4.0 | 0.00 | 0.00 | 0.00 | 94 | 1016.0 |
| 20260506102133 | 69 | 106 | 3.0 | 4.0 | 0.00 | 0.00 | 0.00 | 94 | 1016.0 |
| 20260506101603 | 70 | 104 | 2.0 | 6.0 | 0.00 | 0.00 | 0.00 | 94 | 1016.1 |
| 20260506101103 | 70 | 104 | 1.0 | 6.0 | 0.00 | 0.00 | 0.00 | 94 | 1016.0 |
| 20260506100534 | 70 | 135 | 0.0 | 4.0 | 0.00 | 0.00 | 0.00 | 94 | 1016.0 |
| 20260506095503 | 70 | 144 | 0.0 | 1.0 | 0.00 | 0.00 | 0.00 | 93 | 1016.1 |
| 20260506094434 | 70 | 111 | 1.0 | 3.0 | 0.00 | 0.00 | 0.00 | 93 | 1016.0 |
| 20260506093934 | 70 | 113 | 1.0 | 3.0 | 0.00 | 0.00 | 0.00 | 92 | 1015.9 |
| 20260506093433 | 70 | 118 | 0.0 | 3.0 | 0.00 | 0.00 | 0.00 | 92 | 1015.9 |
| 20260506092903 | 70 | 152 | 1.0 | 2.0 | 0.00 | 0.00 | 0.00 | 92 | 1016.0 |
| 20260506092403 | 70 | 154 | 1.0 | 5.0 | 0.00 | 0.00 | 0.00 | 92 | 1015.9 |
| 20260506091903 | 70 | 147 | 0.0 | 5.0 | 0.00 | 0.00 | 0.00 | 92 | 1015.7 |
| 20260506091334 | 70 | 148 | 0.0 | 3.0 | 0.00 | 0.00 | 0.00 | 92 | 1015.7 |
| 20260506090333 | 69 | 168 | 1.0 | 4.0 | 0.00 | 0.00 | 0.00 | 91 | 1015.7 |
| 20260506084803 | 69 | 105 | 1.0 | 2.0 | 0.00 | 0.00 | 0.00 | 90 | 1015.7 |
| 20260506084303 | 70 | 109 | 1.0 | 4.0 | 0.00 | 0.00 | 0.00 | 90 | 1015.8 |
| 20260506083803 | 70 | 109 | 2.0 | 4.0 | 0.00 | 0.00 | 0.00 | 90 | 1015.7 |
| 20260506083304 | 69 | 121 | 2.0 | 4.0 | 0.00 | 0.00 | 0.00 | 90 | 1015.7 |
| 20260506082803 | 69 | 139 | 1.0 | 4.0 | 0.00 | 0.00 | 0.00 | 90 | 1015.6 |
| 20260506082234 | 69 | 145 | 0.0 | 3.0 | 0.00 | 0.00 | 0.00 | 89 | 1015.9 |
| 20260506081233 | 69 | 136 | 1.0 | 2.0 | 0.00 | 0.00 | 0.00 | 89 | 1016.0 |
| 20260506080133 | 69 | 152 | 1.0 | 3.0 | 0.00 | 0.00 | 0.00 | 88 | 1015.9 |
| 20260506073103 | 69 | 151 | 1.0 | 3.0 | 0.00 | 0.00 | 0.00 | 88 | 1016.0 |
| 20260506072533 | 69 | 138 | 1.0 | 4.0 | 0.00 | 0.00 | 0.00 | 88 | 1015.9 |
| 20260506072003 | 69 | 144 | 1.0 | 4.0 | 0.00 | 0.00 | 0.00 | 88 | 1016.1 |
| 20260506071503 | 69 | 155 | 1.0 | 3.0 | 0.00 | 0.00 | 0.00 | 88 | 1016.1 |
| 20260506071003 | 69 | 118 | 0.0 | 3.0 | 0.00 | 0.00 | 0.00 | 88 | 1016.1 |
| 20260506062233 | 69 | 105 | 2.0 | 5.0 | 0.00 | 0.00 | 0.00 | 87 | 1016.3 |
| 20260506061733 | 69 | 102 | 2.0 | 6.0 | 0.00 | 0.00 | 0.00 | 87 | 1016.3 |
| 20260506061207 | 69 | 101 | 2.0 | 6.0 | 0.00 | 0.00 | 0.00 | 87 | 1016.4 |
| 20260506060633 | 69 | 111 | 1.0 | 4.0 | 0.00 | 0.00 | 0.00 | 87 | 1016.4 |
| 20260506060134 | 69 | 123 | 0.0 | 4.0 | 0.00 | 0.00 | 0.00 | 87 | 1016.5 |
| 20260506050933 | 69 | 101 | 3.0 | 6.0 | 0.00 | 0.00 | 0.00 | 85 | 1016.9 |
| 20260506050433 | 69 | 102 | 3.0 | 4.0 | 0.00 | 0.00 | 0.00 | 84 | 1017.0 |
| 20260506042733 | 71 | 105 | 2.0 | 6.0 | 0.00 | 0.00 | 0.00 | 82 | 1017.0 |
| 20260506042233 | 71 | 110 | 2.0 | 4.0 | 0.00 | 0.00 | 0.00 | 81 | 1016.9 |
| 20260506041703 | 71 | 105 | 2.0 | 6.0 | 0.00 | 0.00 | 0.00 | 81 | 1016.9 |
| 20260506041204 | 71 | 109 | 2.0 | 6.0 | 0.00 | 0.00 | 0.00 | 80 | 1016.9 |
| 20260506040703 | 71 | 111 | 2.0 | 6.0 | 0.00 | 0.00 | 0.00 | 80 | 1016.9 |
| 20260506040203 | 71 | 105 | 2.0 | 6.0 | 0.00 | 0.00 | 0.00 | 80 | 1016.9 |
| 20260506035104 | 71 | 123 | 1.0 | 7.0 | 0.00 | 0.00 | 0.00 | 80 | 1016.9 |
| 20260506034534 | 71 | 105 | 3.0 | 7.0 | 0.00 | 0.00 | 0.00 | 79 | 1016.9 |
| 20260506033503 | 72 | 108 | 4.0 | 7.0 | 0.00 | 0.00 | 0.00 | 79 | 1017.0 |
| 20260506032933 | 72 | 108 | 4.0 | 8.0 | 0.00 | 0.00 | 0.00 | 79 | 1017.0 |
| 20260506032433 | 72 | 107 | 4.0 | 7.0 | 0.00 | 0.00 | 0.00 | 78 | 1017.0 |
| 20260506031934 | 72 | 105 | 4.0 | 7.0 | 0.00 | 0.00 | 0.00 | 78 | 1017.0 |
| 20260506031403 | 72 | 106 | 4.0 | 8.0 | 0.00 | 0.00 | 0.00 | 78 | 1017.0 |
| 20260506030833 | 72 | 105 | 4.0 | 9.0 | 0.00 | 0.00 | 0.00 | 77 | 1016.9 |
| 20260506025803 | 72 | 107 | 5.0 | 7.0 | 0.00 | 0.00 | 0.00 | 77 | 1016.9 |
| 20260506025305 | 73 | 104 | 5.0 | 8.0 | 0.00 | 0.00 | 0.00 | 77 | 1016.9 |
| 20260506024733 | 73 | 105 | 4.0 | 8.0 | 0.00 | 0.00 | 0.00 | 76 | 1016.8 |
| 20260506024233 | 73 | 107 | 3.0 | 8.0 | 0.00 | 0.00 | 0.00 | 75 | 1016.7 |
| 20260506023235 | 73 | 105 | 4.0 | 9.0 | 0.00 | 0.00 | 0.00 | 75 | 1016.7 |
| 20260506022704 | 73 | 106 | 5.0 | 9.0 | 0.00 | 0.00 | 0.00 | 75 | 1016.6 |
| 20260506022203 | 74 | 104 | 6.0 | 9.0 | 0.00 | 0.00 | 0.00 | 75 | 1016.6 |
| 20260506021133 | 74 | 103 | 6.0 | 10.0 | 0.00 | 0.00 | 0.00 | 74 | 1016.5 |
| 20260506020603 | 74 | 103 | 7.0 | 10.0 | 0.00 | 0.00 | 0.00 | 74 | 1016.4 |
| 20260506020033 | 74 | 101 | 8.0 | 14.0 | 0.00 | 0.00 | 0.00 | 73 | 1016.3 |
| 20260506015503 | 75 | 102 | 9.0 | 14.0 | 0.00 | 0.00 | 0.00 | 73 | 1016.3 |
| 20260506014934 | 75 | 101 | 9.0 | 14.0 | 0.00 | 0.00 | 0.00 | 74 | 1016.1 |
| 20260506014433 | 75 | 99 | 9.0 | 14.0 | 0.00 | 0.00 | 0.00 | 74 | 1016.0 |
| 20260506013404 | 75 | 102 | 9.0 | 14.0 | 0.00 | 0.00 | 0.00 | 73 | 1016.0 |
| 20260506012834 | 75 | 103 | 9.0 | 15.0 | 0.00 | 0.00 | 0.00 | 72 | 1015.8 |
| 20260506012307 | 76 | 101 | 10.0 | 15.0 | 0.00 | 0.00 | 0.00 | 71 | 1015.7 |
| 20260506011733 | 76 | 101 | 10.0 | 16.0 | 0.00 | 0.00 | 0.00 | 72 | 1015.7 |
| 20260506011233 | 76 | 103 | 10.0 | 16.0 | 0.00 | 0.00 | 0.00 | 71 | 1015.6 |
| 20260506010203 | 76 | 99 | 10.0 | 14.0 | 0.00 | 0.00 | 0.00 | 70 | 1015.5 |
| 20260506005133 | 76 | 103 | 10.0 | 15.0 | 0.00 | 0.00 | 0.00 | 70 | 1015.4 |
| 20260506004133 | 77 | 99 | 11.0 | 17.0 | 0.00 | 0.00 | 0.00 | 70 | 1015.1 |
| 20260506003633 | 77 | 101 | 10.0 | 17.0 | 0.00 | 0.00 | 0.00 | 70 | 1015.1 |
| 20260506003133 | 77 | 102 | 9.0 | 15.0 | 0.00 | 0.00 | 0.00 | 70 | 1015.1 |
| 20260506002103 | 77 | 104 | 9.0 | 16.0 | 0.00 | 0.00 | 0.00 | 69 | 1014.9 |
| 20260506001604 | 78 | 104 | 9.0 | 16.0 | 0.00 | 0.00 | 0.00 | 69 | 1014.9 |
| 20260506001033 | 78 | 102 | 11.0 | 16.0 | 0.00 | 0.00 | 0.00 | 68 | 1015.0 |
| 20260506000533 | 78 | 101 | 11.0 | 18.0 | 0.00 | 0.00 | 0.00 | 66 | 1014.9 |
| 20260506000005 | 78 | 102 | 12.0 | 19.0 | 0.00 | 0.00 | 0.00 | 68 | 1014.9 |
| 20260505235503 | 79 | 104 | 12.0 | 19.0 | 0.00 | 0.00 | 0.00 | 67 | 1014.7 |
| 20260505235004 | 79 | 102 | 14.0 | 20.0 | 0.00 | 0.00 | 0.00 | 68 | 1014.6 |
| 20260505234503 | 79 | 100 | 15.0 | 21.0 | 0.00 | 0.00 | 0.00 | 67 | 1014.6 |
| 20260505234004 | 80 | 101 | 13.0 | 21.0 | 0.00 | 0.00 | 0.00 | 67 | 1014.5 |
| 20260505233503 | 80 | 102 | 12.0 | 17.0 | 0.00 | 0.00 | 0.00 | 66 | 1014.5 |
| 20260505233005 | 80 | 100 | 13.0 | 19.0 | 0.00 | 0.00 | 0.00 | 66 | 1014.4 |
| 20260505232503 | 81 | 100 | 14.0 | 19.0 | 0.00 | 0.00 | 0.00 | 65 | 1014.5 |
| 20260505231503 | 82 | 100 | 11.0 | 18.0 | 0.00 | 0.00 | 0.00 | 65 | 1014.6 |
| 20260505231005 | 82 | 97 | 10.0 | 16.0 | 0.00 | 0.00 | 0.00 | 64 | 1014.5 |
| 20260505230433 | 82 | 99 | 10.0 | 15.0 | 0.00 | 0.00 | 0.00 | 63 | 1014.5 |
| 20260505225905 | 82 | 100 | 11.0 | 15.0 | 0.00 | 0.00 | 0.00 | 62 | 1014.5 |
| 20260505224303 | 84 | 101 | 9.0 | 13.0 | 0.00 | 0.00 | 0.00 | 60 | 1014.5 |
| 20260505223803 | 84 | 101 | 7.0 | 11.0 | 0.00 | 0.00 | 0.00 | 60 | 1014.5 |
| 20260505223303 | 84 | 106 | 6.0 | 11.0 | 0.00 | 0.00 | 0.00 | 57 | 1014.6 |
| 20260505222733 | 84 | 105 | 6.0 | 10.0 | 0.00 | 0.00 | 0.00 | 59 | 1014.4 |
| 20260505222233 | 84 | 100 | 6.0 | 10.0 | 0.00 | 0.00 | 0.00 | 58 | 1014.3 |
| 20260505221703 | 84 | 100 | 8.0 | 11.0 | 0.00 | 0.00 | 0.00 | 59 | 1014.3 |
| 20260505221203 | 84 | 98 | 7.0 | 11.0 | 0.00 | 0.00 | 0.00 | 56 | 1014.4 |
| 20260505220633 | 84 | 96 | 7.0 | 12.0 | 0.00 | 0.00 | 0.00 | 58 | 1014.3 |
| 20260505215633 | 84 | 100 | 9.0 | 13.0 | 0.00 | 0.00 | 0.00 | 58 | 1014.5 |
| 20260505215133 | 85 | 99 | 10.0 | 14.0 | 0.00 | 0.00 | 0.00 | 59 | 1014.4 |
| 20260505214604 | 85 | 98 | 9.0 | 14.0 | 0.00 | 0.00 | 0.00 | 56 | 1014.4 |
| 20260505213504 | 86 | 108 | 3.0 | 6.0 | 0.00 | 0.00 | 0.00 | 53 | 1014.4 |
| 20260505212933 | 86 | 113 | 3.0 | 8.0 | 0.00 | 0.00 | 0.00 | 53 | 1014.3 |
| 20260505212403 | 86 | 106 | 3.0 | 8.0 | 0.00 | 0.00 | 0.00 | 53 | 1014.4 |
| 20260505211903 | 86 | 100 | 4.0 | 11.0 | 0.00 | 0.00 | 0.00 | 56 | 1014.4 |
| 20260505211335 | 86 | 97 | 6.0 | 11.0 | 0.00 | 0.00 | 0.00 | 53 | 1014.3 |
| 20260505210833 | 86 | 96 | 6.0 | 11.0 | 0.00 | 0.00 | 0.00 | 54 | 1014.3 |
| 20260505205833 | 87 | 100 | 6.0 | 11.0 | 0.00 | 0.00 | 0.00 | 52 | 1014.4 |
| 20260505205305 | 88 | 104 | 4.0 | 11.0 | 0.00 | 0.00 | 0.00 | 51 | 1014.3 |
| 20260505204803 | 88 | 112 | 2.0 | 7.0 | 0.00 | 0.00 | 0.00 | 52 | 1014.3 |
| 20260505204233 | 88 | 107 | 3.0 | 7.0 | 0.00 | 0.00 | 0.00 | 49 | 1014.4 |
| 20260505203733 | 88 | 102 | 4.0 | 7.0 | 0.00 | 0.00 | 0.00 | 50 | 1014.4 |
| 20260505203233 | 88 | 93 | 2.0 | 7.0 | 0.00 | 0.00 | 0.00 | 52 | 1014.4 |
| 20260505202703 | 88 | 66 | 2.0 | 4.0 | 0.00 | 0.00 | 0.00 | 49 | 1014.5 |
| 20260505202203 | 88 | 79 | 2.0 | 4.0 | 0.00 | 0.00 | 0.00 | 49 | 1014.5 |
| 20260505201633 | 88 | 96 | 3.0 | 9.0 | 0.00 | 0.00 | 0.00 | 49 | 1014.6 |
| 20260505201103 | 87 | 94 | 3.0 | 9.0 | 0.00 | 0.00 | 0.00 | 53 | 1014.7 |
| 20260505200033 | 87 | 90 | 4.0 | 8.0 | 0.00 | 0.00 | 0.00 | 51 | 1014.7 |
| 20260505194433 | 88 | 94 | 4.0 | 12.0 | 0.00 | 0.00 | 0.00 | 51 | 1014.8 |
| 20260505193433 | 88 | 101 | 5.0 | 10.0 | 0.00 | 0.00 | 0.00 | 48 | 1015.0 |
| 20260505192903 | 88 | 97 | 4.0 | 10.0 | 0.00 | 0.00 | 0.00 | 51 | 1015.0 |
| 20260505191833 | 88 | 100 | 3.0 | 8.0 | 0.00 | 0.00 | 0.00 | 52 | 1015.1 |
| 20260505191303 | 88 | 103 | 5.0 | 10.0 | 0.00 | 0.00 | 0.00 | 51 | 1015.2 |
| 20260505190803 | 88 | 95 | 5.0 | 10.0 | 0.00 | 0.00 | 0.00 | 52 | 1015.2 |
| 20260505190233 | 88 | 92 | 5.0 | 13.0 | 0.00 | 0.00 | 0.00 | 51 | 1015.3 |
| 20260505185733 | 88 | 94 | 4.0 | 13.0 | 0.00 | 0.00 | 0.00 | 53 | 1015.3 |
| 20260505185203 | 89 | 100 | 4.0 | 12.0 | 0.00 | 0.00 | 0.00 | 49 | 1015.4 |
| 20260505184703 | 88 | 102 | 5.0 | 13.0 | 0.00 | 0.00 | 0.00 | 53 | 1015.4 |
| 20260505184203 | 88 | 91 | 4.0 | 13.0 | 0.00 | 0.00 | 0.00 | 53 | 1015.5 |
| 20260505183703 | 87 | 88 | 3.0 | 7.0 | 0.00 | 0.00 | 0.00 | 53 | 1015.5 |
| 20260505183203 | 87 | 101 | 4.0 | 11.0 | 0.00 | 0.00 | 0.00 | 54 | 1015.6 |
| 20260505182703 | 87 | 96 | 4.0 | 11.0 | 0.00 | 0.00 | 0.00 | 52 | 1015.7 |
| 20260505181603 | 87 | 96 | 4.0 | 9.0 | 0.00 | 0.00 | 0.00 | 50 | 1016.0 |
| 20260505181103 | 87 | 99 | 5.0 | 10.0 | 0.00 | 0.00 | 0.00 | 51 | 1016.1 |
| 20260505180533 | 88 | 104 | 5.0 | 10.0 | 0.00 | 0.00 | 0.00 | 53 | 1016.0 |
| 20260505180033 | 88 | 105 | 5.0 | 10.0 | 0.00 | 0.00 | 0.00 | 53 | 1016.1 |
| 20260505174403 | 87 | 95 | 5.0 | 12.0 | 0.00 | 0.00 | 0.00 | 55 | 1016.3 |
| 20260505173333 | 87 | 118 | 3.0 | 8.0 | 0.00 | 0.00 | 0.00 | 55 | 1016.4 |
| 20260505172803 | 87 | 110 | 3.0 | 8.0 | 0.00 | 0.00 | 0.00 | 53 | 1016.4 |
| 20260505172233 | 86 | 94 | 2.0 | 8.0 | 0.00 | 0.00 | 0.00 | 55 | 1016.4 |
| 20260505171733 | 86 | 99 | 5.0 | 11.0 | 0.00 | 0.00 | 0.00 | 54 | 1016.5 |
| 20260505171233 | 86 | 101 | 7.0 | 12.0 | 0.00 | 0.00 | 0.00 | 53 | 1016.5 |
| 20260505170733 | 87 | 97 | 7.0 | 12.0 | 0.00 | 0.00 | 0.00 | 54 | 1016.5 |
| 20260505170203 | 86 | 93 | 5.0 | 10.0 | 0.00 | 0.00 | 0.00 | 54 | 1016.5 |
| 20260505165703 | 86 | 93 | 4.0 | 9.0 | 0.00 | 0.00 | 0.00 | 56 | 1016.5 |
| 20260505165203 | 86 | 97 | 6.0 | 11.0 | 0.00 | 0.00 | 0.00 | 53 | 1016.7 |
| 20260505164633 | 86 | 100 | 5.0 | 12.0 | 0.00 | 0.00 | 0.00 | 58 | 1016.7 |
| 20260505164135 | 86 | 89 | 4.0 | 10.0 | 0.00 | 0.00 | 0.00 | 57 | 1016.6 |
| 20260505163634 | 85 | 92 | 6.0 | 12.0 | 0.00 | 0.00 | 0.00 | 57 | 1016.5 |
| 20260505163103 | 86 | 100 | 6.0 | 12.0 | 0.00 | 0.00 | 0.00 | 56 | 1016.5 |
| 20260505162603 | 86 | 100 | 5.0 | 12.0 | 0.00 | 0.00 | 0.00 | 59 | 1016.7 |
| 20260505162033 | 84 | 95 | 6.0 | 13.0 | 0.00 | 0.00 | 0.00 | 59 | 1016.6 |
| 20260505151802 | 83 | 103 | 9.0 | 14.0 | 0.00 | 0.00 | 0.00 | 61 | 1016.6 |
| 20260505151303 | 82 | 100 | 9.0 | 14.0 | 0.00 | 0.00 | 0.00 | 64 | 1016.7 |
| 20260505150803 | 82 | 96 | 9.0 | 14.0 | 0.00 | 0.00 | 0.00 | 67 | 1016.7 |
| 20260505150233 | 81 | 95 | 9.0 | 15.0 | 0.00 | 0.00 | 0.00 | 65 | 1016.6 |
| 20260505140402 | 78 | 98 | 10.0 | 15.0 | 0.00 | 0.00 | 0.00 | 75 | 1016.1 |
| 20260505130203 | 75 | 98 | 9.0 | 14.0 | 0.00 | 0.00 | 0.00 | 81 | 1016.2 |
| 20260505124103 | 73 | 96 | 7.0 | 11.0 | 0.00 | 0.00 | 0.00 | 85 | 1016.3 |
| 20260505123533 | 72 | 102 | 7.0 | 11.0 | 0.00 | 0.00 | 0.00 | 86 | 1016.3 |
| 20260505123033 | 72 | 99 | 6.0 | 11.0 | 0.00 | 0.00 | 0.00 | 86 | 1016.3 |
| 20260505121432 | 71 | 99 | 6.0 | 9.0 | 0.00 | 0.00 | 0.00 | 88 | 1016.3 |
| 20260505120933 | 71 | 96 | 6.0 | 9.0 | 0.00 | 0.00 | 0.00 | 89 | 1016.3 |
| 20260505120433 | 71 | 94 | 5.0 | 9.0 | 0.00 | 0.00 | 0.00 | 89 | 1016.2 |
| 20260505114903 | 69 | 87 | 3.0 | 7.0 | 0.00 | 0.00 | 0.00 | 91 | 1016.0 |
| 20260505114403 | 69 | 88 | 3.0 | 6.0 | 0.00 | 0.00 | 0.00 | 91 | 1016.0 |
| 20260505113332 | 69 | 89 | 4.0 | 9.0 | 0.00 | 0.00 | 0.00 | 92 | 1015.7 |
| 20260505112304 | 68 | 91 | 4.0 | 9.0 | 0.00 | 0.00 | 0.00 | 93 | 1015.5 |